| time (UTC) | temp F | wind direction | speed MPH | gust MPH | rain 1hr in | rain 24hr in | rain mn in | humidity % | barometer mb |
| 20260506073211 | 51 | 177 | 4.0 | 0.0 | 0.00 | 0.00 | 0.00 | 93 | 1011.9 |
| 20260506070212 | 51 | 177 | 4.0 | 0.0 | 0.00 | 0.00 | 0.00 | 93 | 1012.0 |
| 20260506060210 | 50 | 137 | 1.0 | 0.0 | 0.00 | 0.00 | 0.00 | 95 | 1011.7 |
| 20260506050211 | 47 | 236 | 0.0 | 0.0 | 0.00 | 0.00 | 0.00 | 95 | 1012.0 |
| 20260506043211 | 47 | 236 | 0.0 | 0.0 | 0.00 | 0.00 | 0.00 | 94 | 1012.2 |
| 20260506040211 | 47 | 236 | 0.0 | 0.0 | 0.00 | 0.00 | 0.00 | 94 | 1012.5 |
| 20260506033211 | 47 | 236 | 0.0 | 0.0 | 0.00 | 0.00 | 0.00 | 94 | 1012.6 |
| 20260506030212 | 47 | 236 | 0.0 | 0.0 | 0.00 | 0.00 | 0.00 | 94 | 1013.0 |
| 20260506023211 | 48 | 236 | 0.0 | 0.0 | 0.00 | 0.00 | 0.00 | 94 | 1013.1 |
| 20260506020212 | 49 | 236 | 2.0 | 0.0 | 0.00 | 0.00 | 0.00 | 93 | 1013.1 |
| 20260506013211 | 49 | 271 | 3.0 | 0.0 | 0.00 | 0.00 | 0.00 | 94 | 1013.3 |
| 20260506010213 | 49 | 255 | 2.0 | 0.0 | 0.00 | 0.00 | 0.00 | 93 | 1013.7 |
| 20260506003209 | 49 | 297 | 0.0 | 0.0 | 0.00 | 0.00 | 0.00 | 93 | 1013.5 |
| 20260506000211 | 50 | 229 | 2.0 | 0.0 | 0.00 | 0.00 | 0.00 | 92 | 1013.8 |
| 20260505233209 | 50 | 237 | 2.0 | 0.0 | 0.00 | 0.00 | 0.00 | 92 | 1013.9 |
| 20260505230209 | 50 | 254 | 4.0 | 0.0 | 0.00 | 0.00 | 0.00 | 92 | 1013.9 |
| 20260505223210 | 50 | 232 | 1.0 | 0.0 | 0.00 | 0.00 | 0.00 | 90 | 1014.1 |
| 20260505220209 | 51 | 232 | 1.0 | 0.0 | 0.00 | 0.00 | 0.00 | 89 | 1014.0 |
| 20260505213211 | 52 | 245 | 3.0 | 0.0 | 0.00 | 0.00 | 0.03 | 89 | 1014.2 |
| 20260505210215 | 53 | 223 | 8.0 | 0.0 | 0.00 | 0.00 | 0.03 | 88 | 1014.2 |
| 20260505203209 | 54 | 246 | 6.0 | 0.0 | 0.00 | 0.00 | 0.03 | 87 | 1013.9 |
| 20260505200210 | 54 | 254 | 10.0 | 0.0 | 0.00 | 0.00 | 0.03 | 87 | 1014.0 |
| 20260505193209 | 56 | 190 | 4.0 | 0.0 | 0.00 | 0.00 | 0.03 | 86 | 1013.7 |
| 20260505190215 | 57 | 240 | 4.0 | 0.0 | 0.00 | 0.00 | 0.03 | 83 | 1012.9 |
| 20260505183212 | 59 | 236 | 7.0 | 0.0 | 0.00 | 0.00 | 0.02 | 76 | 1012.6 |
| 20260505180211 | 60 | 265 | 12.0 | 0.0 | 0.00 | 0.00 | 0.02 | 74 | 1012.3 |
| 20260505173210 | 61 | 263 | 10.0 | 0.0 | 0.00 | 0.00 | 0.02 | 70 | 1012.2 |
| 20260505170210 | 62 | 217 | 4.0 | 0.0 | 0.00 | 0.00 | 0.02 | 66 | 1011.9 |
| 20260505163211 | 62 | 252 | 4.0 | 0.0 | 0.00 | 0.00 | 0.02 | 65 | 1011.9 |
| 20260505153210 | 62 | 180 | 3.0 | 0.0 | 0.00 | 0.00 | 0.02 | 70 | 1011.8 |
| 20260505150216 | 61 | 232 | 3.0 | 0.0 | 0.00 | 0.00 | 0.02 | 72 | 1011.9 |
| 20260505140210 | 60 | 343 | 8.0 | 0.0 | 0.00 | 0.00 | 0.02 | 80 | 1012.1 |
| 20260505130210 | 60 | 312 | 7.0 | 0.0 | 0.00 | 0.00 | 0.02 | 83 | 1012.3 |
| 20260505123210 | 60 | 259 | 4.0 | 0.0 | 0.00 | 0.00 | 0.01 | 77 | 1012.7 |
| 20260505120210 | 62 | 182 | 8.0 | 0.0 | 0.00 | 0.00 | 0.00 | 70 | 1012.9 |
| 20260505113210 | 63 | 192 | 8.0 | 0.0 | 0.00 | 0.00 | 0.00 | 65 | 1012.7 |
| 20260505110211 | 62 | 229 | 5.0 | 0.0 | 0.00 | 0.00 | 0.00 | 66 | 1012.4 |
| 20260505100212 | 62 | 275 | 7.0 | 0.0 | 0.00 | 0.00 | 0.00 | 67 | 1012.7 |
| 20260505093212 | 62 | 297 | 3.0 | 0.0 | 0.00 | 0.00 | 0.00 | 69 | 1012.9 |
| 20260505090212 | 61 | 269 | 5.0 | 0.0 | 0.00 | 0.00 | 0.00 | 70 | 1013.0 |
| 20260505083211 | 61 | 218 | 2.0 | 0.0 | 0.00 | 0.00 | 0.00 | 72 | 1013.1 |
| 20260505080210 | 60 | 288 | 4.0 | 0.0 | 0.00 | 0.00 | 0.00 | 72 | 1013.3 |